Victoria, British Columbia

7:17 AM PDT on August 16, 2017 (GMT -0700)
Victoria International

Weather History for CYYJ - December, 2013

Change the Weather History Date:

Monday, December 30, 2013

  Actual Average Record
Temperature  
Mean Temperature 42 °F -  
Max Temperature 45 °F 44 °F 51 °F (1997)
Min Temperature 40 °F 33 °F 23 °F (2010)
Degree Days  
Heating Degree Days 22    
Moisture  
Dew Point 41 °F    
Average Humidity 94    
Maximum Humidity 100    
Minimum Humidity 80    
Precipitation  
Precipitation 0.00 in 0.19 in - ()
Sea Level Pressure  
Sea Level Pressure 30.20 in    
Wind  
Wind Speed 3 mph ()    
Max Wind Speed 13 mph    
Max Gust Speed -    
Visibility 12.5 miles    
Events Rain    
Averages and records for this station are not official NWS values.
T = Trace of Precipitation, MM = Missing Value Source: Averaged Metar Reports

Daily Weather History Graph

Daily Weather History Graph

Search for Another Location

Airport or City:

Trip Planner

Search our weather history database for the weather conditions in past years. The results will help you decide how hot, cold, wet, or windy it might be!

Date:

Astronomy

Dec. 30, 2013 Rise Set
Actual Time 8:06 AM PST 4:26 PM PST
Civil Twilight 7:29 AM PST 5:03 PM PST
Nautical Twilight 6:49 AM PST 5:43 PM PST
Astronomical Twilight 6:11 AM PST 6:22 PM PST
Moon 5:58 AM PST (12/30) 3:09 PM PST (12/30)
Length of Visible Light 9h 34m
Length of Day
8h 20m
Waning Crescent, 4% of the Moon is Illuminated
Dec 30
Waning Crescent
Jan 1
New
Jan 7
First Quarter
Jan 15
Full
Jan 23
Last Quarter

Hourly Weather History & Observations

Time (PST) Temp. Windchill Dew Point Humidity Pressure Visibility Wind Dir Wind Speed Gust Speed Precip Events Conditions
12:00 AM 42.8 °F - 41.0 °F 93% 30.33 in 3.0 mi SSW 2.3 mph - N/A   Overcast
12:21 AM 42.8 °F - 42.8 °F 100% 30.33 in 3.0 mi East 2.3 mph - N/A   Light Drizzle
12:40 AM 42.8 °F - 41.0 °F 93% 30.33 in 3.0 mi Calm Calm - N/A   Overcast
1:00 AM 42.8 °F - 41.0 °F 93% 30.32 in 3.0 mi Calm Calm - N/A   Overcast
2:00 AM 41.0 °F - 41.0 °F 100% 30.31 in 3.0 mi Calm Calm - N/A   Overcast
3:00 AM 41.0 °F - 41.0 °F 100% 30.30 in 3.0 mi WSW 2.3 mph - N/A   Overcast
4:00 AM 41 °F - 41 °F 100% 30.28 in 3 mi NE 2.3 mph - -   Mist
4:00 AM 41.0 °F - 41.0 °F 100% 30.28 in 3.0 mi NE 2.3 mph - N/A   Overcast
4:47 AM 41.0 °F - 41.0 °F 100% 30.27 in 5.0 mi WNW 2.3 mph - N/A   Overcast
5:00 AM 41.0 °F - 41.0 °F 100% 30.26 in 5.0 mi WNW 2.3 mph - N/A   Overcast
6:00 AM 41.0 °F - 41.0 °F 100% 30.24 in 5.0 mi Calm Calm - N/A   Overcast
7:00 AM 41.0 °F - 41.0 °F 100% 30.22 in 5.0 mi Calm Calm - N/A   Overcast
8:00 AM 41.0 °F 39.0 °F 41.0 °F 100% 30.20 in 10.0 mi West 3.5 mph - N/A   Overcast
9:00 AM 41.0 °F 38.0 °F 41.0 °F 100% 30.20 in 12.0 mi WSW 4.6 mph - N/A   Overcast
10:00 AM 42 °F - 42 °F 100% 30.20 in 12 mi WNW 3.5 mph - -   Overcast
10:00 AM 42.8 °F 41.1 °F 42.8 °F 100% 30.19 in 12.0 mi WNW 3.5 mph - N/A   Overcast
11:00 AM 42.8 °F - 41.0 °F 93% 30.19 in 15.0 mi WSW 2.3 mph - N/A   Overcast
12:00 PM 42.8 °F 41.1 °F 42.8 °F 100% 30.18 in 15.0 mi WNW 3.5 mph - N/A   Overcast
1:00 PM 44.6 °F 41.4 °F 41.0 °F 87% 30.16 in 15.0 mi ESE 5.8 mph - N/A   Mostly Cloudy
2:00 PM 44.6 °F 42.2 °F 42.8 °F 93% 30.14 in 15.0 mi ESE 4.6 mph - N/A   Mostly Cloudy
3:00 PM 44.6 °F 40.7 °F 42.8 °F 93% 30.12 in 20.0 mi ESE 6.9 mph - N/A   Mostly Cloudy
4:00 PM 44 °F - 40 °F 80% 30.11 in 19 mi SSE 11.5 mph - -   Scattered Clouds
4:00 PM 44.6 °F 38.4 °F 39.2 °F 81% 30.11 in 20.0 mi SSE 12.7 mph - N/A   Mostly Cloudy
5:00 PM 42.8 °F 38.0 °F 41.0 °F 93% 30.12 in 20.0 mi SSE 8.1 mph - N/A   Mostly Cloudy
6:00 PM 42.8 °F 40.1 °F 41.0 °F 93% 30.12 in 20.0 mi SE 4.6 mph - N/A Rain Light Rain
6:12 PM 42.8 °F 38.6 °F 41.0 °F 93% 30.13 in 20.0 mi SE 6.9 mph - N/A   Overcast
7:00 PM 42.8 °F 37.5 °F 41.0 °F 93% 30.13 in 20.0 mi SE 9.2 mph - N/A   Overcast
8:00 PM 44.6 °F 40.2 °F 41.0 °F 87% 30.15 in 20.0 mi SE 8.1 mph - N/A   Overcast
8:21 PM 44.6 °F 39.7 °F 41.0 °F 87% 30.15 in 20.0 mi SE 9.2 mph - N/A Rain Light Rain
8:44 PM 44.6 °F 40.2 °F 42.8 °F 93% 30.15 in 20.0 mi SE 8.1 mph - N/A   Overcast
9:00 PM 44.6 °F 40.7 °F 42.8 °F 93% 30.16 in 20.0 mi SSE 6.9 mph - N/A   Overcast
10:00 PM 44 °F - 42 °F 90% 30.15 in 19 mi SSE 9.2 mph - -   Partly Cloudy
10:00 PM 44.6 °F 39.7 °F 42.8 °F 93% 30.15 in 20.0 mi SSE 9.2 mph - N/A   Scattered Clouds
10:39 PM 44.6 °F 39.7 °F 42.8 °F 93% 30.15 in 20.0 mi ESE 9.2 mph - N/A   Scattered Clouds
11:00 PM 44.6 °F 39.7 °F 42.8 °F 93% 30.16 in 8.0 mi SE 9.2 mph - N/A   Mostly Cloudy